Tracking 35275 objects as of 8-Sep-2026
HD Live streaming from Space Station
objects crossing your sky now

SL-4 R/B


SL-4 R/B is no longer on orbit


NORAD ID: 11714
Int'l Code: 1980-017B
Launch date: February 21, 1980
Source: Commonwealth of Independent States (former USSR) (CIS)
Launch site: PLESETSK MISSILE AND SPACE COMPLEX (PKMTR)
Decay date: 1980-02-25

Note: This is a ROCKET BODY
Your satellite tracking list
Your tracking list is empty




NASA's NSSDC Master Catalog

Two Line Element Set (TLE):
1 11714U 80017  B 80055.77173091  .08244215 +93275-5 +16871-3 0  9996
2 11714 072.8646 326.9599 0063212 071.8058 289.0058 16.33531315000536
Source of the keplerian elements: AFSPC